TimeCDT,TemperatureF,Dew PointF,Humidity,Sea Level PressureIn,VisibilityMPH,Wind Direction,Wind SpeedMPH,Gust SpeedMPH,PrecipitationIn,Events,Conditions,WindDirDegrees,DateUTC
12:15 AM,60.8,51.8,72,29.78,10.0,Calm,Calm,-,N/A,,Overcast,0,2012-10-01 05:15:00
12:35 AM,60.8,53.6,77,29.77,10.0,Calm,Calm,-,N/A,,Mostly Cloudy,0,2012-10-01 05:35:00
12:55 AM,60.8,51.8,72,29.76,9.0,Calm,Calm,-,N/A,,Mostly Cloudy,0,2012-10-01 05:55:00
1:15 AM,60.8,51.8,72,29.75,10.0,NE,3.5,-,N/A,,Mostly Cloudy,50,2012-10-01 06:15:00
1:35 AM,60.8,51.8,72,29.74,10.0,NE,5.8,-,N/A,,Overcast,50,2012-10-01 06:35:00
1:55 AM,60.8,51.8,72,29.75,10.0,East,4.6,-,0.01,,Overcast,100,2012-10-01 06:55:00
2:35 AM,59.0,51.8,77,29.74,7.0,ENE,5.8,-,0.03,,Overcast,70,2012-10-01 07:35:00
3:15 AM,59.0,51.8,77,29.72,7.0,NE,5.8,-,0.07,,Overcast,40,2012-10-01 08:15:00
3:35 AM,59.0,51.8,77,29.71,7.0,NE,4.6,-,0.09,,Overcast,40,2012-10-01 08:35:00
3:55 AM,59.0,51.8,77,29.71,6.0,ENE,6.9,-,0.13,,Overcast,60,2012-10-01 08:55:00
4:15 AM,59.0,51.8,77,29.70,5.0,NE,9.2,-,0.07,,Mostly Cloudy,50,2012-10-01 09:15:00
5:15 AM,57.2,51.8,82,29.68,8.0,NNE,8.1,-,0.02,,Overcast,30,2012-10-01 10:15:00
5:35 AM,57.2,51.8,82,29.69,9.0,NNE,6.9,-,0.03,,Overcast,20,2012-10-01 10:35:00
5:55 AM,57.2,51.8,82,29.68,7.0,NNE,9.2,-,0.04,,Overcast,20,2012-10-01 10:55:00
6:15 AM,59.0,51.8,77,29.68,5.0,NNE,10.4,-,0.03,,Overcast,20,2012-10-01 11:15:00
6:35 AM,59.0,51.8,77,29.67,6.0,NE,9.2,-,0.05,,Overcast,40,2012-10-01 11:35:00
6:56 AM,57.2,51.8,82,29.66,4.0,NE,13.8,17.3,N/A,,Overcast,40,2012-10-01 11:56:00
7:15 AM,59.0,51.8,77,29.66,5.0,NE,9.2,-,N/A,,Overcast,40,2012-10-01 12:15:00
7:35 AM,59.0,51.8,77,29.67,7.0,NNE,11.5,-,N/A,,Overcast,30,2012-10-01 12:35:00
7:55 AM,59.0,51.8,77,29.68,8.0,NNE,10.4,-,N/A,,Overcast,30,2012-10-01 12:55:00
8:15 AM,59.0,51.8,77,29.67,8.0,North,11.5,17.3,N/A,,Overcast,10,2012-10-01 13:15:00
8:35 AM,60.8,51.8,72,29.68,9.0,NNE,9.2,-,N/A,,Overcast,30,2012-10-01 13:35:00
9:15 AM,60.8,51.8,72,29.69,8.0,NNE,10.4,-,N/A,,Overcast,20,2012-10-01 14:15:00
9:35 AM,60.8,51.8,72,29.69,2.0,NE,12.7,-,N/A,,Overcast,40,2012-10-01 14:35:00
10:15 AM,59.0,51.8,77,29.66,2.5,NNE,19.6,28.8,N/A,,Overcast,20,2012-10-01 15:15:00
10:35 AM,59.0,51.8,77,29.67,4.0,NNE,15.0,21.9,N/A,,Overcast,20,2012-10-01 15:35:00
11:35 AM,60.8,53.6,77,29.62,7.0,North,12.7,18.4,0.07,,Mostly Cloudy,10,2012-10-01 16:35:00
11:55 AM,60.8,53.6,77,29.64,8.0,NNE,15.0,20.7,0.07,,Mostly Cloudy,30,2012-10-01 16:55:00
12:15 PM,60.8,53.6,77,29.65,10.0,NNE,11.5,-,N/A,,Overcast,30,2012-10-01 17:15:00
12:35 PM,60.8,53.6,77,29.64,10.0,NNE,12.7,19.6,N/A,,Overcast,30,2012-10-01 17:35:00
1:15 PM,64.4,53.6,68,29.62,10.0,NNE,12.7,23.0,N/A,,Overcast,20,2012-10-01 18:15:00
1:35 PM,62.6,53.6,72,29.62,10.0,North,13.8,19.6,N/A,,Overcast,360,2012-10-01 18:35:00
1:55 PM,64.4,53.6,68,29.62,10.0,North,11.5,18.4,N/A,,Overcast,350,2012-10-01 18:55:00
2:15 PM,64.4,53.6,68,29.63,10.0,North,12.7,-,N/A,,Overcast,360,2012-10-01 19:15:00
2:55 PM,62.6,53.6,72,29.62,10.0,North,15.0,21.9,N/A,,Overcast,350,2012-10-01 19:55:00
3:15 PM,62.6,51.8,68,29.63,10.0,North,11.5,20.7,N/A,,Overcast,350,2012-10-01 20:15:00
3:55 PM,60.8,51.8,72,29.65,10.0,North,12.7,17.3,N/A,,Overcast,360,2012-10-01 20:55:00
4:15 PM,60.8,51.8,72,29.64,10.0,North,16.1,20.7,N/A,,Overcast,350,2012-10-01 21:15:00
4:35 PM,60.8,51.8,72,29.64,10.0,North,15.0,21.9,N/A,,Overcast,360,2012-10-01 21:35:00
4:56 PM,60.8,51.8,72,29.65,10.0,NNW,11.5,18.4,N/A,,Overcast,340,2012-10-01 21:56:00
5:15 PM,60.8,51.8,72,29.66,10.0,North,15.0,-,N/A,,Overcast,350,2012-10-01 22:15:00
5:35 PM,60.8,50.0,68,29.67,10.0,North,11.5,18.4,N/A,,Overcast,350,2012-10-01 22:35:00
6:35 PM,60.8,50.0,68,29.69,10.0,North,12.7,18.4,N/A,,Overcast,350,2012-10-01 23:35:00
6:55 PM,60.8,50.0,68,29.69,10.0,North,16.1,19.6,N/A,,Mostly Cloudy,350,2012-10-01 23:55:00
7:15 PM,60.8,50.0,68,29.70,10.0,North,12.7,18.4,N/A,,Overcast,360,2012-10-02 00:15:00
7:35 PM,60.8,50.0,68,29.70,10.0,North,11.5,21.9,N/A,,Overcast,350,2012-10-02 00:35:00
7:55 PM,60.8,50.0,68,29.71,10.0,North,11.5,17.3,N/A,,Overcast,350,2012-10-02 00:55:00
8:35 PM,60.8,50.0,68,29.73,10.0,North,11.5,17.3,N/A,,Scattered Clouds,350,2012-10-02 01:35:00
8:55 PM,60.8,50.0,68,29.73,10.0,NNW,9.2,-,N/A,,Mostly Cloudy,340,2012-10-02 01:55:00
9:15 PM,60.8,50.0,68,29.73,10.0,NNW,10.4,16.1,N/A,,Overcast,340,2012-10-02 02:15:00
9:35 PM,59.0,50.0,72,29.73,10.0,NNW,9.2,-,N/A,,Overcast,340,2012-10-02 02:35:00
9:55 PM,59.0,48.2,67,29.74,10.0,NNW,11.5,-,N/A,,Mostly Cloudy,340,2012-10-02 02:55:00
10:35 PM,57.2,48.2,72,29.74,10.0,NNW,5.8,-,N/A,,Mostly Cloudy,330,2012-10-02 03:35:00
10:55 PM,57.2,48.2,72,29.74,10.0,NNW,8.1,-,N/A,,Overcast,330,2012-10-02 03:55:00
11:15 PM,57.2,48.2,72,29.74,10.0,NNW,6.9,-,N/A,,Mostly Cloudy,330,2012-10-02 04:15:00
11:55 PM,57.2,48.2,72,29.74,10.0,NW,6.9,-,N/A,,Overcast,320,2012-10-02 04:55:00